Weather History for Liberal, KS

Change the Weather History Date:

Friday, September 28, 2012

  Actual Average Record
Temperature  
Mean Temperature 64 °F -  
Max Temperature 71 °F 82 °F 96 °F (1982)
Min Temperature 57 °F 52 °F 33 °F (1945)
Degree Days  
Heating Degree Days 1    
Growing Degree Days 14 (Base 50)    
Moisture  
Dew Point 55 °F    
Average Humidity 75    
Maximum Humidity 88    
Minimum Humidity 57    
Precipitation  
Precipitation 0.69 in - - ()
Sea Level Pressure  
Sea Level Pressure 30.15 in    
Wind  
Wind Speed 7 mph (NE)    
Max Wind Speed 23 mph    
Max Gust Speed 26 mph    
Visibility 10 miles    
Events Thunderstorm    
Averages and records for this station are not official NWS values.
T = Trace of Precipitation, MM = Missing Value Source: NWS Daily Summary

Daily Weather History Graph

Daily Weather History Graph

Search for Another Location

Airport:

Trip Planner

Search our weather history database for the weather conditions in past years. The results will help you decide how hot, cold, wet, or windy it might be!

Date:

Astronomy

Sep. 28, 2012 Rise Set
Actual Time 7:37 AM CDT 7:30 PM CDT
Civil Twilight 7:11 AM CDT 7:56 PM CDT
Nautical Twilight 6:41 AM CDT 8:26 PM CDT
Astronomical Twilight 6:10 AM CDT 8:57 PM CDT
Moon 6:33 PM CDT (9/28) 6:10 AM CDT (9/28)
Length of Visible Light 12h 45m
Length of Day
11h 53m
Waxing Gibbous, 98% of the Moon is Illuminated
Sep 28
Waxing Gibbous
Sep 29
Full
Oct 8
Last Quarter
Oct 15
New
Oct 21
First Quarter

Hourly Weather History & Observations

Time (CDT) Temp. Dew Point Humidity Pressure Visibility Wind Dir Wind Speed Gust Speed Precip Events Conditions
12:15 AM 64.4 °F 57.2 °F 77% 30.19 in 10.0 mi NNW 6.9 mph - N/A   Overcast
12:35 AM 60.8 °F 53.6 °F 77% 30.20 in 6.0 mi North 23.0 mph 26.5 mph 0.30 in Thunderstorm Thunderstorm
12:55 AM 57.2 °F 51.8 °F 82% 30.19 in 10.0 mi North 18.4 mph - 0.62 in Thunderstorm Overcast
1:15 AM 57.2 °F 51.8 °F 82% 30.20 in 10.0 mi WNW 3.5 mph - 0.06 in   Overcast
1:35 AM 57.2 °F 51.8 °F 82% 30.18 in 10.0 mi Calm Calm - 0.07 in   Overcast
1:55 AM 57.2 °F 53.6 °F 88% 30.18 in 10.0 mi Calm Calm - 0.07 in   Overcast
2:15 AM 57.2 °F 53.6 °F 88% 30.16 in 10.0 mi SE 5.8 mph - N/A   Overcast
2:35 AM 57.2 °F 53.6 °F 88% 30.14 in 10.0 mi East 6.9 mph - N/A   Overcast
2:55 AM 57.2 °F 53.6 °F 88% 30.16 in 10.0 mi North 5.8 mph - N/A   Overcast
3:15 AM 57.2 °F 53.6 °F 88% 30.15 in 10.0 mi ESE 4.6 mph - N/A   Overcast
3:35 AM 57.2 °F 53.6 °F 88% 30.13 in 10.0 mi SE 15.0 mph - N/A   Overcast
3:55 AM 57.2 °F 53.6 °F 88% 30.16 in 10.0 mi ENE 3.5 mph - N/A   Overcast
4:15 AM 57.2 °F 53.6 °F 88% 30.14 in 10.0 mi SE 4.6 mph - N/A   Overcast
4:35 AM 57.2 °F 53.6 °F 88% 30.15 in 10.0 mi NNW 4.6 mph - N/A   Overcast
4:55 AM 57.2 °F 53.6 °F 88% 30.15 in 10.0 mi Calm Calm - N/A   Overcast
5:15 AM 57.2 °F 53.6 °F 88% 30.15 in 10.0 mi WNW 3.5 mph - N/A   Overcast
5:35 AM 57.2 °F 53.6 °F 88% 30.14 in 10.0 mi Calm Calm - N/A   Overcast
5:55 AM 57.2 °F 53.6 °F 88% 30.14 in 10.0 mi Calm Calm - N/A   Scattered Clouds
6:15 AM 57.2 °F 53.6 °F 88% 30.13 in 10.0 mi North 3.5 mph - N/A   Clear
6:35 AM 57.2 °F 53.6 °F 88% 30.14 in 10.0 mi NNW 4.6 mph - N/A   Clear
6:55 AM 57.2 °F 53.6 °F 88% 30.14 in 10.0 mi North 6.9 mph - N/A   Clear
7:15 AM 57.2 °F 53.6 °F 88% 30.14 in 10.0 mi North 3.5 mph - N/A   Clear
7:35 AM 57.2 °F 53.6 °F 88% 30.15 in 10.0 mi North 5.8 mph - N/A   Clear
7:55 AM 57.2 °F 53.6 °F 88% 30.14 in 10.0 mi North 8.1 mph - N/A   Clear
8:15 AM 57.2 °F 53.6 °F 88% 30.15 in 10.0 mi North 6.9 mph - N/A   Clear
8:35 AM 57.2 °F 53.6 °F 88% 30.16 in 10.0 mi NNW 6.9 mph - N/A   Partly Cloudy
8:55 AM 57.2 °F 53.6 °F 88% 30.17 in 10.0 mi NNW 6.9 mph - N/A   Partly Cloudy
9:15 AM 59.0 °F 53.6 °F 82% 30.18 in 10.0 mi North 6.9 mph - N/A   Clear
9:35 AM 59.0 °F 53.6 °F 82% 30.18 in 10.0 mi NNW 6.9 mph - N/A   Clear
9:55 AM 60.8 °F 55.4 °F 82% 30.19 in 10.0 mi NNW 5.8 mph - N/A   Clear
10:15 AM 62.6 °F 55.4 °F 77% 30.19 in 10.0 mi North 5.8 mph - N/A   Clear
10:35 AM 62.6 °F 57.2 °F 82% 30.19 in 10.0 mi North 6.9 mph - N/A   Mostly Cloudy
10:55 AM 62.6 °F 55.4 °F 77% 30.19 in 10.0 mi North 5.8 mph - N/A   Overcast
11:15 AM 62.6 °F 55.4 °F 77% 30.20 in 10.0 mi North 5.8 mph - N/A   Overcast
11:35 AM 64.4 °F 55.4 °F 73% 30.20 in 10.0 mi Calm Calm - N/A   Overcast
11:55 AM 64.4 °F 55.4 °F 73% 30.21 in 10.0 mi NNW 4.6 mph - N/A   Overcast
12:15 PM 64.4 °F 55.4 °F 73% 30.20 in 10.0 mi North 3.5 mph - N/A   Overcast
12:35 PM 66.2 °F 55.4 °F 68% 30.20 in 10.0 mi WNW 4.6 mph - N/A   Overcast
12:55 PM 66.2 °F 57.2 °F 73% 30.19 in 10.0 mi North 6.9 mph - N/A   Mostly Cloudy
1:15 PM 68.0 °F 55.4 °F 64% 30.19 in 10.0 mi North 3.5 mph - N/A   Overcast
1:35 PM 69.8 °F 57.2 °F 64% 30.18 in 10.0 mi NNE 5.8 mph - N/A   Mostly Cloudy
1:55 PM 69.8 °F 55.4 °F 60% 30.17 in 10.0 mi NNE 6.9 mph - N/A   Scattered Clouds
2:15 PM 69.8 °F 55.4 °F 60% 30.16 in 10.0 mi NNE 4.6 mph - N/A   Scattered Clouds
2:35 PM 69.8 °F 55.4 °F 60% 30.15 in 10.0 mi Calm Calm - N/A   Scattered Clouds
2:55 PM 71.6 °F 57.2 °F 60% 30.14 in 10.0 mi North 4.6 mph - N/A   Mostly Cloudy
3:15 PM 71.6 °F 55.4 °F 57% 30.14 in 10.0 mi North 4.6 mph - N/A   Overcast
3:35 PM 71.6 °F 55.4 °F 57% 30.14 in 10.0 mi NE 4.6 mph - N/A   Overcast
3:55 PM 71.6 °F 55.4 °F 57% 30.13 in 10.0 mi North 5.8 mph - N/A   Overcast
4:15 PM 71.6 °F 55.4 °F 57% 30.12 in 10.0 mi ENE 4.6 mph - N/A   Overcast
4:35 PM 71.6 °F 55.4 °F 57% 30.12 in 10.0 mi East 3.5 mph - N/A   Overcast
4:55 PM 71.6 °F 55.4 °F 57% 30.12 in 10.0 mi NNE 6.9 mph - N/A   Overcast
5:15 PM 71.6 °F 55.4 °F 57% 30.12 in 10.0 mi NE 9.2 mph - N/A   Overcast
5:35 PM 71.6 °F 55.4 °F 57% 30.12 in 10.0 mi ENE 8.1 mph - N/A   Overcast
5:55 PM 71.6 °F 55.4 °F 57% 30.12 in 10.0 mi ENE 8.1 mph - N/A   Mostly Cloudy
6:15 PM 71.6 °F 55.4 °F 57% 30.11 in 10.0 mi East 6.9 mph - N/A   Partly Cloudy
6:35 PM 69.8 °F 55.4 °F 60% 30.12 in 10.0 mi East 6.9 mph - N/A   Clear
6:55 PM 69.8 °F 55.4 °F 60% 30.13 in 10.0 mi ESE 8.1 mph - N/A   Partly Cloudy
7:15 PM 69.8 °F 55.4 °F 60% 30.12 in 10.0 mi East 5.8 mph - N/A   Partly Cloudy
7:35 PM 69.8 °F 55.4 °F 60% 30.12 in 10.0 mi East 5.8 mph - N/A   Clear
7:55 PM 66.2 °F 55.4 °F 68% 30.12 in 10.0 mi East 4.6 mph - N/A   Clear
8:15 PM 66.2 °F 55.4 °F 68% 30.12 in 10.0 mi ESE 4.6 mph - N/A   Clear
8:35 PM 66.2 °F 55.4 °F 68% 30.12 in 10.0 mi ESE 5.8 mph - N/A   Clear
8:55 PM 66.2 °F 55.4 °F 68% 30.12 in 10.0 mi ESE 5.8 mph - N/A   Clear
9:15 PM 64.4 °F 55.4 °F 73% 30.13 in 10.0 mi SE 5.8 mph - N/A   Clear
9:35 PM 64.4 °F 55.4 °F 73% 30.14 in 10.0 mi SE 5.8 mph - N/A   Clear
9:55 PM 64.4 °F 55.4 °F 73% 30.14 in 10.0 mi SE 5.8 mph - N/A   Clear
10:15 PM 64.4 °F 55.4 °F 73% 30.14 in 10.0 mi SE 4.6 mph - N/A   Clear
10:35 PM 64.4 °F 55.4 °F 73% 30.15 in 10.0 mi SE 5.8 mph - N/A   Clear
10:55 PM 62.6 °F 55.4 °F 77% 30.15 in 10.0 mi SE 3.5 mph - N/A   Clear
11:15 PM 62.6 °F 55.4 °F 77% 30.15 in 10.0 mi SE 4.6 mph - N/A   Clear
11:35 PM 62.6 °F 55.4 °F 77% 30.15 in 10.0 mi SE 3.5 mph - N/A   Clear
11:55 PM 62.6 °F 55.4 °F 77% 30.15 in 10.0 mi Calm Calm - N/A   Clear